Calgary Springbank,

9:21 AM MDT on May 23, 2017 (GMT -0600)
Calgary Springbank

Weather History for CYBW - February, 2012

Change the Weather History Date:

Thursday, February 9, 2012

  Actual Average Record
Temperature  
Mean Temperature 20 °F -  
Max Temperature 32 °F 30 °F 55 °F (2016)
Min Temperature 9 °F 10 °F -27 °F (2014)
Degree Days  
Heating Degree Days 44    
Moisture  
Dew Point 10 °F    
Average Humidity 60    
Maximum Humidity 79    
Minimum Humidity 42    
Precipitation  
Precipitation 0.00 in - - ()
Sea Level Pressure  
Sea Level Pressure 30.42 in    
Wind  
Wind Speed 5 mph ()    
Max Wind Speed 10 mph    
Max Gust Speed -    
Visibility 16.7 miles    
Events      
Averages and records for this station are not official NWS values.
T = Trace of Precipitation, MM = Missing Value Source: Averaged Metar Reports

Daily Weather History Graph

Daily Weather History Graph

Search for Another Location

Airport or City:

Trip Planner

Search our weather history database for the weather conditions in past years. The results will help you decide how hot, cold, wet, or windy it might be!

Date:

Astronomy

Feb. 09, 2012 Rise Set
Actual Time 8:01 AM MST 5:42 PM MST
Civil Twilight 7:27 AM MST 6:17 PM MST
Nautical Twilight 6:47 AM MST 6:56 PM MST
Astronomical Twilight 6:09 AM MST 7:34 PM MST
Moon 8:40 PM MST (2/9) 8:19 AM MST (2/9)
Length of Visible Light 10h 49m
Length of Day
9h 40m
Waning Gibbous, 95% of the Moon is Illuminated
Feb 9
Waning Gibbous
Feb 14
Last Quarter
Feb 21
New
Feb 29
First Quarter
Mar 8
Full

Hourly Weather History & Observations

Time (MST) Temp. Windchill Dew Point Humidity Pressure Visibility Wind Dir Wind Speed Gust Speed Precip Events Conditions
5:00 AM 16 °F - 6 °F 51% 30.32 in 28 mi NNW 10.4 mph - -  
5:00 AM 15.8 °F 3.4 °F 5.0 °F 62% 30.32 in 15.0 mi NNW 10.4 mph - N/A   Clear
6:00 AM 10.4 °F 2.2 °F 5.0 °F 79% 30.35 in 15.0 mi WNW 4.6 mph - N/A   Partly Cloudy
7:00 AM 14.0 °F 8.2 °F 5.0 °F 67% 30.36 in 15.0 mi North 3.5 mph - N/A   Partly Cloudy
8:00 AM 14.0 °F 2.0 °F 5.0 °F 67% 30.44 in 20.0 mi NNW 9.2 mph - N/A   Clear
9:00 AM 14.0 °F - 5.0 °F 67% 30.45 in 30.0 mi West 2.3 mph - N/A   Partly Cloudy
10:00 AM 21.2 °F - 10.4 °F 63% 30.47 in 30.0 mi Calm Calm - N/A   Partly Cloudy
11:00 AM 25 °F - 12 °F 43% 30.45 in 28 mi ENE 3.5 mph - -   Scattered Clouds
11:00 AM 24.8 °F 20.5 °F 12.2 °F 59% 30.45 in 30.0 mi ENE 3.5 mph - N/A   Partly Cloudy
12:00 PM 26.6 °F 21.2 °F 12.2 °F 55% 30.45 in 30.0 mi East 4.6 mph - N/A   Partly Cloudy
1:00 PM 28.4 °F 24.6 °F 12.2 °F 51% 30.45 in 30.0 mi ESE 3.5 mph - N/A   Partly Cloudy
2:00 PM 30.2 °F 26.7 °F 12.2 °F 47% 30.44 in 30.0 mi SE 3.5 mph - N/A   Partly Cloudy
3:00 PM 30.2 °F 26.7 °F 12.2 °F 47% 30.43 in 30.0 mi East 3.5 mph - N/A   Scattered Clouds
4:00 PM 30.2 °F 24.3 °F 12.2 °F 47% 30.44 in 30.0 mi ESE 5.8 mph - N/A   Scattered Clouds
5:00 PM 26 °F - 12 °F 42% 30.44 in 19 mi East 5.8 mph - -   Scattered Clouds
5:00 PM 26.6 °F 20.0 °F 12.2 °F 55% 30.44 in 20.0 mi East 5.8 mph - N/A   Scattered Clouds
6:00 PM 21.2 °F 10.9 °F 10.4 °F 63% 30.45 in 20.0 mi East 9.2 mph - N/A   Scattered Clouds
7:00 PM 19.4 °F 10.4 °F 10.4 °F 68% 30.46 in 15.0 mi East 6.9 mph - N/A   Partly Cloudy
8:00 PM 17.6 °F 10.7 °F 10.4 °F 73% 30.50 in 15.0 mi East 4.6 mph - N/A   Partly Cloudy
9:00 PM 15.8 °F 6.1 °F 10.4 °F 79% 30.51 in 15.0 mi East 6.9 mph - N/A   Partly Cloudy
10:00 PM 14.0 °F 3.9 °F 8.6 °F 79% 30.27 in 15.0 mi East 6.9 mph - N/A   Partly Cloudy